Location: Bishopstone
(51.0167°N, 1.9000°W)
Time: 04:51:47
(UTC+00:00)

Meteor 1-4 Rocket - Pass Details

Date: 16 September 2019
Orbit: 449 x 504 km, 81.2° (Epoch: 20 October)

Event Time Altitude Azimuth Distance (km) Brightness Sun altitude
Rises 19:07:24 0° 359° (N) 2,548 6.4 -8.1°
Reaches altitude 10° 19:10:01 10° 19° (NNE) 1,651 5.2 -8.5°
Maximum altitude 19:12:36 18° 64° (ENE) 1,209 4.1 -8.9°
Enters shadow 19:14:29 13° 102° (ESE) 1,449 4.3 -9.2°
